"read_dt","SO2 (ppb)","flags","PMT voltage (V)","lamp voltage (V)","lamp intensity (Hz)","internal temp (C)","react chamber temp (C)","sample flow (l/min)","pres (mmHg)","SO2 bkg (ppb)","SO2 coefficient"
2018-06-28 00:00:00,-3.101E-01,4C000000*,-703.0,977.129,89,26.2,45.0,0.405,733.9,2.2,1.050*
2018-06-28 00:01:00,-2.991E-01,4C000000*,-703.0,977.129,90,26.2,45.0,0.406,733.9,2.2,1.050*
2018-06-28 00:02:00,-2.655E-01,4C000000*,-703.4,976.320,90,26.2,44.8,0.406,733.9,2.2,1.050*
2018-06-28 00:03:00,-2.843E-01,4C000000*,-703.0,976.725,87,26.3,45.1,0.405,733.9,2.2,1.050*
2018-06-28 00:04:00,-3.597E-01,4C000000*,-702.6,976.320,90,26.2,44.8,0.405,733.9,2.2,1.050*
2018-06-28 00:05:00,-3.207E-01,4C000000*,-703.0,976.320,90,26.2,44.9,0.406,733.9,2.2,1.050*
2018-06-28 00:06:00,-2.989E-01,4C000000*,-702.6,977.533,89,26.2,45.1,0.406,733.9,2.2,1.050*
2018-06-28 00:07:00,-2.683E-01,4C000000*,-703.0,976.320,90,26.2,44.8,0.405,733.9,2.2,1.050*
2018-06-28 00:08:00,-3.207E-01,4C000000*,-703.4,976.320,89,26.2,44.9,0.405,733.9,2.2,1.050*
2018-06-28 00:09:00,-2.363E-01,4C000000*,-703.0,976.320,89,26.2,45.0,0.406,733.9,2.2,1.050*
2018-06-28 00:10:00,-2.835E-01,4C000000*,-702.6,977.129,90,26.2,44.8,0.405,733.9,2.2,1.050*
2018-06-28 00:11:00,-2.690E-01,4C000000*,-703.0,976.320,90,26.2,45.0,0.406,734.2,2.2,1.050*
2018-06-28 00:12:00,-2.873E-01,4C000000*,-702.6,977.129,90,26.2,45.0,0.405,733.9,2.2,1.050*
2018-06-28 00:13:00,-2.700E-01,4C000000*,-703.0,976.320,90,26.2,44.8,0.406,733.9,2.2,1.050*
2018-06-28 00:14:00,-3.504E-01,4C000000*,-703.0,976.320,89,26.2,45.0,0.405,733.9,2.2,1.050*
2018-06-28 00:15:00,-2.912E-01,4C000000*,-702.6,976.725,90,26.3,44.8,0.406,733.9,2.2,1.050*
2018-06-28 00:16:00,-2.348E-01,4C000000*,-703.0,977.129,91,26.2,44.8,0.406,733.9,2.2,1.050*
2018-06-28 00:17:00,-1.815E-01,4C000000*,-703.0,977.129,89,26.4,45.1,0.406,733.9,2.2,1.050*
2018-06-28 00:18:00,-2.606E-01,4C000000*,-702.6,976.320,90,26.2,44.8,0.405,733.9,2.2,1.050*
2018-06-28 00:19:00,-2.867E-01,4C000000*,-702.6,977.533,90,26.3,45.0,0.406,733.9,2.2,1.050*
2018-06-28 00:20:00,-2.409E-01,4C000000*,-703.7,976.320,90,26.3,45.0,0.405,733.9,2.2,1.050*
2018-06-28 00:21:00,-3.072E-01,4C000000*,-702.6,975.916,89,26.2,44.9,0.405,733.9,2.2,1.050*
2018-06-28 00:22:00,-2.690E-01,4C000000*,-703.4,977.533,90,26.2,45.1,0.405,734.2,2.2,1.050*
2018-06-28 00:23:00,-2.802E-01,4C000000*,-703.4,976.320,90,26.3,44.8,0.406,733.9,2.2,1.050*
2018-06-28 00:24:00,-2.884E-01,4C000000*,-703.0,976.320,90,26.3,44.9,0.406,734.2,2.2,1.050*
2018-06-28 00:25:00,-2.074E-01,4C000000*,-702.6,975.108,90,26.3,45.1,0.405,733.9,2.2,1.050*
2018-06-28 00:26:00,-2.276E-01,4C000000*,-702.6,975.916,91,26.3,44.8,0.405,734.2,2.2,1.050*
2018-06-28 00:27:00,-2.989E-01,4C000000*,-703.0,977.938,90,26.3,45.0,0.406,733.9,2.2,1.050*
2018-06-28 00:28:00,-3.370E-01,4C000000*,-702.6,976.725,89,26.3,45.1,0.406,733.9,2.2,1.050*
2018-06-28 00:29:00,-2.333E-01,4C000000*,-702.6,977.533,90,26.4,44.8,0.406,734.2,2.2,1.050*
2018-06-28 00:30:00,-2.864E-01,4C000000*,-703.0,976.320,90,26.3,45.0,0.406,734.2,2.2,1.050*
2018-06-28 00:31:00,-3.155E-01,4C000000*,-702.6,975.108,90,26.3,44.9,0.405,733.9,2.2,1.050*
2018-06-28 00:32:00,-3.094E-01,4C000000*,-703.0,975.108,90,26.4,44.9,0.405,734.2,2.2,1.050*
2018-06-28 00:33:00,-2.872E-01,4C000000*,-702.6,975.916,89,26.4,45.1,0.405,733.9,2.2,1.050*
2018-06-28 00:34:00,-2.524E-01,4C000000*,-703.4,975.916,89,26.4,44.8,0.406,733.9,2.2,1.050*
2018-06-28 00:35:00,-2.823E-01,4C000000*,-702.6,977.129,89,26.3,44.9,0.406,734.2,2.2,1.050*
2018-06-28 00:36:00,-3.774E-01,4C000000*,-703.0,974.703,90,26.3,45.2,0.406,733.9,2.2,1.050*
2018-06-28 00:37:00,-2.557E-01,4C000000*,-703.0,976.725,89,26.4,44.8,0.406,733.9,2.2,1.050*
2018-06-28 00:38:00,-2.134E-01,4C000000*,-702.6,975.108,90,26.4,45.0,0.406,733.9,2.2,1.050*
2018-06-28 00:39:00,-3.699E-01,4C000000*,-702.6,976.725,91,26.4,45.0,0.405,733.9,2.2,1.050*
2018-06-28 00:40:00,-2.780E-01,4C000000*,-702.6,976.320,90,26.4,44.8,0.405,733.9,2.2,1.050*
2018-06-28 00:41:00,-3.006E-01,4C000000*,-703.4,975.916,90,26.4,45.0,0.406,734.2,2.2,1.050*
2018-06-28 00:42:00,-3.196E-01,4C000000*,-702.3,976.320,90,26.4,44.9,0.405,733.9,2.2,1.050*
2018-06-28 00:43:00,-2.574E-01,4C000000*,-702.6,975.916,91,26.4,44.8,0.406,733.9,2.2,1.050*
2018-06-28 00:44:00,-3.139E-01,4C000000*,-702.3,976.320,91,26.4,45.1,0.406,733.9,2.2,1.050*
2018-06-28 00:45:00,-3.468E-01,4C000000*,-703.0,976.320,90,26.4,44.8,0.405,734.2,2.2,1.050*
2018-06-28 00:46:00,-2.256E-01,4C000000*,-702.3,976.725,89,26.5,44.9,0.406,733.9,2.2,1.050*
2018-06-28 00:47:00,-2.954E-01,4C000000*,-703.4,976.320,91,26.4,45.2,0.406,734.2,2.2,1.050*
2018-06-28 00:48:00,-2.046E-01,4C000000*,-702.6,976.725,91,26.5,44.8,0.406,733.9,2.2,1.050*
2018-06-28 00:49:00,-3.509E-01,4C000000*,-703.4,976.320,90,26.4,45.0,0.406,733.9,2.2,1.050*
2018-06-28 00:50:00,-2.704E-01,4C000000*,-702.6,976.320,89,26.5,44.9,0.406,733.9,2.2,1.050*
2018-06-28 00:51:00,-3.216E-01,4C000000*,-703.0,975.916,88,26.4,44.8,0.406,734.2,2.2,1.050*
2018-06-28 00:52:00,-2.577E-01,4C000000*,-703.0,976.320,90,26.5,45.2,0.406,733.9,2.2,1.050*
2018-06-28 00:53:00,-2.093E-01,4C000000*,-703.0,975.916,89,26.4,44.7,0.406,733.9,2.2,1.050*
2018-06-28 00:54:00,-3.303E-01,4C000000*,-703.0,975.916,90,26.4,44.9,0.405,733.9,2.2,1.050*
2018-06-28 00:55:00,-2.963E-01,4C000000*,-703.0,976.320,90,26.5,45.0,0.405,733.9,2.2,1.050*
2018-06-28 00:56:00,-3.625E-01,4C000000*,-703.0,976.320,89,26.4,44.8,0.405,733.9,2.2,1.050*
2018-06-28 00:57:00,-2.177E-01,4C000000*,-702.6,975.512,90,26.4,45.1,0.406,734.2,2.2,1.050*
2018-06-28 00:58:00,-2.952E-01,4C000000*,-702.6,975.108,89,26.4,44.9,0.406,733.9,2.2,1.050*
2018-06-28 00:59:00,-2.198E-01,4C000000*,-703.0,975.512,90,26.5,44.8,0.406,733.9,2.2,1.050*
2018-06-28 01:00:00,-2.812E-01,4C000000*,-703.0,975.512,88,26.4,45.1,0.406,733.9,2.2,1.050*
2018-06-28 01:01:00,-2.736E-01,4C000000*,-702.6,975.916,90,26.4,44.9,0.406,733.9,2.2,1.050*
2018-06-28 01:02:00,-1.916E-01,4C000000*,-703.0,976.320,90,26.5,44.9,0.406,733.9,2.2,1.050*
2018-06-28 01:03:00,-2.836E-01,4C000000*,-703.0,976.725,89,26.5,45.2,0.406,733.9,2.2,1.050*
2018-06-28 01:04:00,-2.557E-01,4C000000*,-702.6,976.320,89,26.5,44.7,0.405,733.9,2.2,1.050*
2018-06-28 01:05:00,-2.430E-01,4C000000*,-702.6,975.916,89,26.4,44.9,0.406,733.9,2.2,1.050*
2018-06-28 01:06:00,-2.565E-01,4C000000*,-703.0,975.512,90,26.5,45.1,0.406,733.9,2.2,1.050*
2018-06-28 01:07:00,-2.815E-01,4C000000*,-703.4,975.512,89,26.5,44.8,0.405,733.9,2.2,1.050*
2018-06-28 01:08:00,-3.006E-01,4C000000*,-702.6,977.533,91,26.5,45.0,0.406,733.9,2.2,1.050*
2018-06-28 01:09:00,-2.599E-01,4C000000*,-702.6,976.320,90,26.5,45.0,0.406,733.9,2.2,1.050*
2018-06-28 01:10:00,-3.027E-01,4C000000*,-702.3,976.725,90,26.5,44.8,0.405,733.9,2.2,1.050*
2018-06-28 01:11:00,-2.347E-01,4C000000*,-702.6,974.703,90,26.5,45.1,0.405,734.2,2.2,1.050*
2018-06-28 01:12:00,-1.767E-01,4C000000*,-703.0,975.108,90,26.5,44.9,0.406,733.9,2.2,1.050*
2018-06-28 01:13:00,-3.766E-01,4C000000*,-702.6,976.725,91,26.5,44.9,0.406,733.9,2.2,1.050*
2018-06-28 01:14:00,-3.307E-01,4C000000*,-703.0,975.916,89,26.5,45.2,0.406,733.9,2.2,1.050*
2018-06-28 01:15:00,-2.933E-01,4C000000*,-702.6,975.916,90,26.5,44.8,0.405,733.9,2.2,1.050*
2018-06-28 01:16:00,-3.164E-01,4C000000*,-703.0,976.320,89,26.5,45.0,0.406,733.9,2.2,1.050*
2018-06-28 01:17:00,-3.185E-01,4C000000*,-703.0,976.320,90,26.5,45.1,0.406,733.9,2.2,1.050*
2018-06-28 01:18:00,-2.275E-01,4C000000*,-702.6,975.916,90,26.5,44.8,0.405,733.9,2.2,1.050*
2018-06-28 01:19:00,-3.064E-01,4C000000*,-703.0,975.108,91,26.5,45.0,0.406,733.9,2.2,1.050*
2018-06-28 01:20:00,-2.700E-01,4C000000*,-703.0,975.512,90,26.5,45.1,0.406,733.9,2.2,1.050*
2018-06-28 01:21:00,-1.612E-01,4C000000*,-702.6,975.916,91,26.6,44.8,0.405,734.2,2.2,1.050*
2018-06-28 01:22:00,-1.647E-01,4C000000*,-702.6,975.916,90,26.5,45.1,0.406,733.9,2.2,1.050*
2018-06-28 01:23:00,-3.037E-01,4C000000*,-703.0,975.108,89,26.6,44.8,0.405,733.9,2.2,1.050*
2018-06-28 01:24:00,-2.819E-01,4C000000*,-703.0,975.512,90,26.5,44.9,0.405,733.9,2.2,1.050*
2018-06-28 01:25:00,-3.497E-01,4C000000*,-703.0,976.320,90,26.6,45.1,0.406,733.9,2.2,1.050*
2018-06-28 01:26:00,-2.156E-01,4C000000*,-703.0,976.320,91,26.6,44.8,0.406,733.9,2.2,1.050*
2018-06-28 01:27:00,-3.182E-01,4C000000*,-702.6,976.725,90,26.6,44.9,0.405,734.2,2.2,1.050*
2018-06-28 01:28:00,-3.415E-01,4C000000*,-703.0,976.320,90,26.5,45.1,0.406,733.9,2.2,1.050*
2018-06-28 01:29:00,-2.314E-01,4C000000*,-703.0,975.916,89,26.6,44.8,0.406,733.9,2.2,1.050*
2018-06-28 01:30:00,-2.271E-01,4C000000*,-702.6,975.916,90,26.6,45.0,0.406,734.2,2.2,1.050*
2018-06-28 01:31:00,-3.846E-01,4C000000*,-703.0,976.320,89,26.6,45.0,0.406,733.9,2.2,1.050*
2018-06-28 01:32:00,-3.248E-01,4C000000*,-702.6,976.320,89,26.6,44.8,0.406,733.9,2.2,1.050*
2018-06-28 01:33:00,-2.668E-01,4C000000*,-703.0,975.916,90,26.6,45.1,0.406,733.9,2.2,1.050*
2018-06-28 01:34:00,-1.737E-01,4C000000*,-703.0,977.533,90,26.7,44.9,0.406,733.9,2.2,1.050*
2018-06-28 01:35:00,-2.204E-01,4C000000*,-702.6,977.129,91,26.6,44.8,0.405,734.2,2.2,1.050*
2018-06-28 01:36:00,-2.585E-01,4C000000*,-702.6,975.916,90,26.7,45.1,0.405,733.9,2.2,1.050*
2018-06-28 01:37:00,-2.548E-01,4C000000*,-702.6,975.512,90,26.6,44.8,0.405,733.9,2.2,1.050*
2018-06-28 01:38:00,-2.571E-01,4C000000*,-702.6,976.320,89,26.6,45.0,0.405,734.2,2.2,1.050*
2018-06-28 01:39:00,-3.271E-01,4C000000*,-703.0,976.320,89,26.6,45.1,0.405,733.9,2.2,1.050*
2018-06-28 01:40:00,-2.956E-01,4C000000*,-702.6,975.916,90,26.7,44.8,0.406,733.9,2.2,1.050*
2018-06-28 01:41:00,-3.084E-01,4C000000*,-703.0,976.320,90,26.7,45.0,0.405,733.9,2.2,1.050*
2018-06-28 01:42:00,-2.672E-01,4C000000*,-703.0,974.703,90,26.7,45.0,0.406,733.9,2.2,1.050*
2018-06-28 01:43:00,-2.276E-01,4C000000*,-702.6,976.725,89,26.7,44.8,0.406,733.9,2.2,1.050*
2018-06-28 01:44:00,-2.637E-01,4C000000*,-703.0,976.725,90,26.6,45.1,0.406,734.2,2.2,1.050*
2018-06-28 01:45:00,-3.490E-01,4C000000*,-703.0,975.512,90,26.6,44.9,0.406,733.9,2.2,1.050*
2018-06-28 01:46:00,-2.627E-01,4C000000*,-703.0,976.320,90,26.7,44.8,0.406,734.2,2.2,1.050*
2018-06-28 01:47:00,-2.174E-01,4C000000*,-702.3,976.725,90,26.7,45.1,0.406,733.9,2.2,1.050*
2018-06-28 01:48:00,-3.372E-01,4C000000*,-702.6,975.108,89,26.6,44.9,0.406,733.9,2.2,1.050*
2018-06-28 01:49:00,-2.978E-01,4C000000*,-702.6,975.916,90,26.7,44.9,0.406,734.2,2.2,1.050*
2018-06-28 01:50:00,-2.929E-01,4C000000*,-703.0,977.533,90,26.7,45.1,0.405,733.9,2.2,1.050*
2018-06-28 01:51:00,-2.213E-01,4C000000*,-702.3,976.320,90,26.7,44.8,0.406,734.2,2.2,1.050*
2018-06-28 01:52:00,-3.324E-01,4C000000*,-702.6,975.108,89,26.7,45.1,0.406,733.9,2.2,1.050*
2018-06-28 01:53:00,-3.470E-01,4C000000*,-702.6,975.512,91,26.7,44.8,0.406,734.2,2.2,1.050*
2018-06-28 01:54:00,-2.636E-01,4C000000*,-703.0,975.916,91,26.8,44.9,0.406,733.9,2.2,1.050*
2018-06-28 01:55:00,-2.123E-01,4C000000*,-702.6,976.320,90,26.8,45.2,0.406,733.9,2.2,1.050*
2018-06-28 01:56:00,-2.735E-01,4C000000*,-702.6,977.129,89,26.7,44.8,0.406,734.2,2.2,1.050*
2018-06-28 01:57:00,-2.444E-01,4C000000*,-702.6,975.512,88,26.7,45.0,0.406,734.2,2.2,1.050*
2018-06-28 01:58:00,-2.442E-01,4C000000*,-702.6,977.129,89,26.8,45.0,0.406,733.9,2.2,1.050*
2018-06-28 01:59:00,-3.248E-01,4C000000*,-702.6,975.916,90,26.7,44.8,0.406,733.9,2.2,1.050*
2018-06-28 02:00:00,-3.041E-01,4C000000*,-702.6,975.108,91,26.8,45.0,0.406,734.2,2.2,1.050*
2018-06-28 02:01:00,-3.033E-01,4C000000*,-702.6,975.512,90,26.8,45.0,0.406,733.9,2.2,1.050*
2018-06-28 02:02:00,-2.585E-01,4C000000*,-703.0,976.320,90,26.7,44.8,0.405,733.9,2.2,1.050*
2018-06-28 02:03:00,-3.343E-01,4C000000*,-702.6,975.916,91,26.8,45.1,0.406,733.9,2.2,1.050*
2018-06-28 02:04:00,-2.493E-01,4C000000*,-702.6,976.320,89,26.8,44.9,0.406,733.9,2.2,1.050*
2018-06-28 02:05:00,-2.848E-01,4C000000*,-703.0,975.512,91,26.8,44.9,0.406,733.9,2.2,1.050*
2018-06-28 02:06:00,-3.319E-01,4C000000*,-703.0,976.320,90,26.8,45.2,0.406,733.9,2.2,1.050*
2018-06-28 02:07:00,-2.116E-01,4C000000*,-703.7,975.512,89,26.8,44.8,0.406,733.9,2.2,1.050*
2018-06-28 02:08:00,-2.893E-01,4C000000*,-703.0,976.320,90,26.8,44.9,0.405,733.9,2.2,1.050*
2018-06-28 02:09:00,-3.214E-01,4C000000*,-702.6,975.512,90,26.8,45.0,0.405,733.9,2.2,1.050*
2018-06-28 02:10:00,-2.568E-01,4C000000*,-702.3,976.320,91,26.8,44.8,0.406,733.9,2.2,1.050*
2018-06-28 02:11:00,-2.792E-01,4C000000*,-703.0,975.512,90,26.8,45.0,0.405,733.9,2.2,1.050*
2018-06-28 02:12:00,-2.811E-01,4C000000*,-702.3,976.320,90,26.7,45.1,0.406,733.9,2.2,1.050*
2018-06-28 02:13:00,-2.927E-01,4C000000*,-702.6,977.129,91,26.8,44.8,0.406,733.9,2.2,1.050*
2018-06-28 02:14:00,-2.732E-01,4C000000*,-702.6,975.916,90,26.8,45.1,0.406,733.9,2.2,1.050*
2018-06-28 02:15:00,-2.412E-01,4C000000*,-702.6,976.725,89,26.8,44.8,0.406,733.9,2.2,1.050*
2018-06-28 02:16:00,-3.069E-01,4C000000*,-702.6,975.512,91,26.9,44.9,0.406,733.9,2.2,1.050*
2018-06-28 02:17:00,-3.043E-01,4C000000*,-702.6,976.320,90,26.9,45.2,0.406,733.9,2.2,1.050*
2018-06-28 02:18:00,-2.958E-01,4C000000*,-703.0,975.512,89,26.8,44.8,0.406,733.9,2.2,1.050*
2018-06-28 02:19:00,-3.544E-01,4C000000*,-703.0,976.320,90,26.8,45.0,0.406,733.9,2.2,1.050*
2018-06-28 02:20:00,-2.839E-01,4C000000*,-703.0,975.512,89,26.9,45.1,0.406,733.9,2.2,1.050*
2018-06-28 02:21:00,-3.211E-01,4C000000*,-703.0,976.725,91,26.8,44.8,0.406,733.9,2.2,1.050*
2018-06-28 02:22:00,-3.103E-01,4C000000*,-703.4,975.916,90,26.8,45.0,0.406,733.9,2.2,1.050*
2018-06-28 02:23:00,-2.454E-01,4C000000*,-702.6,975.512,89,26.9,45.1,0.405,733.9,2.2,1.050*
2018-06-28 02:24:00,-2.970E-01,4C000000*,-702.6,976.320,90,26.9,44.8,0.405,733.9,2.2,1.050*
2018-06-28 02:25:00,-2.632E-01,4C000000*,-702.6,977.938,89,26.9,45.1,0.406,733.9,2.2,1.050*
2018-06-28 02:26:00,-3.419E-01,4C000000*,-703.0,975.108,89,26.9,44.8,0.406,733.9,2.2,1.050*
2018-06-28 02:27:00,-3.057E-01,4C000000*,-702.6,975.108,90,26.9,44.8,0.406,733.9,2.2,1.050*
2018-06-28 02:28:00,-3.409E-01,4C000000*,-703.0,976.725,90,26.9,45.1,0.406,733.9,2.2,1.050*
2018-06-28 02:29:00,-2.342E-01,4C000000*,-703.0,975.916,90,26.9,44.8,0.406,733.9,2.2,1.050*
2018-06-28 02:30:00,-2.458E-01,4C000000*,-703.0,975.512,89,26.9,44.9,0.406,733.9,2.2,1.050*
2018-06-28 02:31:00,-2.727E-01,4C000000*,-702.6,975.108,89,26.8,45.2,0.405,733.9,2.2,1.050*
2018-06-28 02:32:00,-3.213E-01,4C000000*,-702.6,975.916,91,26.9,44.8,0.405,733.9,2.2,1.050*
2018-06-28 02:33:00,-2.381E-01,4C000000*,-702.6,974.703,89,26.9,45.0,0.406,733.9,2.2,1.050*
2018-06-28 02:34:00,-3.221E-01,4C000000*,-702.6,975.512,89,26.9,45.1,0.406,733.9,2.2,1.050*
2018-06-28 02:35:00,-3.664E-01,4C000000*,-703.0,975.512,90,26.8,44.8,0.406,733.9,2.2,1.050*
2018-06-28 02:36:00,-3.610E-01,4C000000*,-702.3,975.512,89,26.9,45.1,0.405,733.9,2.2,1.050*
2018-06-28 02:37:00,-2.535E-01,4C000000*,-702.6,974.703,89,26.9,44.9,0.406,733.9,2.2,1.050*
2018-06-28 02:38:00,-1.597E-01,4C000000*,-702.6,974.703,89,26.9,44.9,0.406,733.9,2.2,1.050*
2018-06-28 02:39:00,-2.830E-01,4C000000*,-702.6,977.129,89,27.0,45.1,0.406,733.9,2.2,1.050*
2018-06-28 02:40:00,-3.117E-01,4C000000*,-703.0,976.320,91,26.9,44.8,0.406,733.9,2.2,1.050*
2018-06-28 02:41:00,-4.009E-01,4C000000*,-702.6,976.320,90,27.0,45.2,0.406,733.9,2.2,1.050*
2018-06-28 02:42:00,-2.612E-01,4C000000*,-702.6,975.916,89,26.9,44.8,0.406,733.9,2.2,1.050*
2018-06-28 02:43:00,-2.637E-01,4C000000*,-703.0,975.108,90,27.0,45.0,0.406,733.9,2.2,1.050*
2018-06-28 02:44:00,-3.153E-01,4C000000*,-703.0,975.916,89,27.0,44.9,0.405,733.9,2.2,1.050*
2018-06-28 02:45:00,-3.471E-01,4C000000*,-702.6,976.320,90,27.0,44.9,0.405,733.9,2.2,1.050*
2018-06-28 02:46:00,-2.726E-01,4C000000*,-703.0,974.299,91,27.0,45.1,0.406,733.9,2.2,1.050*
2018-06-28 02:47:00,-2.953E-01,4C000000*,-703.0,975.108,90,27.0,44.9,0.406,733.9,2.2,1.050*
2018-06-28 02:48:00,-1.811E-01,4C000000*,-703.0,974.703,89,27.0,45.1,0.405,733.9,2.2,1.050*
2018-06-28 02:49:00,-3.136E-01,4C000000*,-702.6,975.916,90,27.0,44.8,0.406,733.9,2.2,1.050*
2018-06-28 02:50:00,-1.831E-01,4C000000*,-702.6,975.916,90,27.0,45.1,0.406,733.9,2.2,1.050*
2018-06-28 02:51:00,-3.537E-01,4C000000*,-703.0,975.108,89,27.0,44.9,0.405,733.9,2.2,1.050*
2018-06-28 02:52:00,-3.218E-01,4C000000*,-703.0,975.916,89,27.0,44.9,0.406,733.9,2.2,1.050*
2018-06-28 02:53:00,-2.122E-01,4C000000*,-702.6,975.916,90,27.0,45.1,0.406,733.9,2.2,1.050*
2018-06-28 02:54:00,-3.075E-01,4C000000*,-702.6,976.725,91,27.0,44.7,0.406,733.9,2.2,1.050*
2018-06-28 02:55:00,-1.917E-01,4C000000*,-702.6,975.512,89,27.0,45.0,0.406,733.9,2.2,1.050*
2018-06-28 02:56:00,-1.594E-01,4C000000*,-702.6,974.703,91,27.0,45.0,0.406,733.9,2.2,1.050*
2018-06-28 02:57:00,-3.499E-01,4C000000*,-702.6,975.512,90,26.9,44.8,0.405,733.9,2.2,1.050*
2018-06-28 02:58:00,-2.764E-01,4C000000*,-703.0,975.512,90,27.0,45.1,0.406,733.9,2.2,1.050*
2018-06-28 02:59:00,-2.234E-01,4C000000*,-703.0,974.703,90,27.0,44.8,0.406,733.9,2.2,1.050*
2018-06-28 03:00:00,-2.334E-01,4C000000*,-703.0,975.108,89,27.0,45.0,0.406,733.9,2.2,1.050*
2018-06-28 03:01:00,-3.005E-01,4C000000*,-702.6,976.725,89,27.1,45.0,0.406,733.9,2.2,1.050*
2018-06-28 03:02:00,-2.064E-01,4C000000*,-703.0,974.299,88,27.0,44.9,0.406,733.9,2.2,1.050*
2018-06-28 03:03:00,-3.152E-01,4C000000*,-702.6,975.512,89,27.1,45.1,0.406,733.9,2.2,1.050*
2018-06-28 03:04:00,-2.595E-01,4C000000*,-702.6,975.916,91,27.0,44.8,0.405,733.9,2.2,1.050*
2018-06-28 03:05:00,-3.392E-01,4C000000*,-702.6,975.512,89,27.0,45.1,0.406,733.9,2.2,1.050*
2018-06-28 03:06:00,-2.693E-01,4C000000*,-703.0,976.320,90,27.0,44.9,0.406,733.6,2.2,1.050*
2018-06-28 03:07:00,-2.421E-01,4C000000*,-702.6,975.512,89,27.1,44.9,0.406,733.9,2.2,1.050*
2018-06-28 03:08:00,-2.844E-01,4C000000*,-703.4,974.703,88,27.0,45.1,0.406,733.9,2.2,1.050*
2018-06-28 03:09:00,-2.255E-01,4C000000*,-702.3,973.491,91,27.0,44.8,0.406,733.9,2.2,1.050*
2018-06-28 03:10:00,-2.052E-01,4C000000*,-702.6,975.916,90,27.1,44.9,0.406,733.9,2.2,1.050*
2018-06-28 03:11:00,-2.889E-01,4C000000*,-703.0,975.916,91,27.0,45.1,0.406,733.9,2.2,1.050*
2018-06-28 03:12:00,-2.262E-01,4C000000*,-702.6,975.512,90,27.1,44.9,0.406,733.6,2.2,1.050*
2018-06-28 03:13:00,-2.339E-01,4C000000*,-702.6,974.703,89,27.0,45.0,0.406,733.9,2.2,1.050*
2018-06-28 03:14:00,-2.914E-01,4C000000*,-702.6,975.108,91,27.1,44.8,0.406,733.9,2.2,1.050*
2018-06-28 03:15:00,-2.944E-01,4C000000*,-702.6,974.703,90,27.1,45.1,0.406,733.9,2.2,1.050*
2018-06-28 03:16:00,-1.962E-01,4C000000*,-702.6,975.108,90,27.1,45.0,0.406,733.9,2.2,1.050*
2018-06-28 03:17:00,-3.138E-01,4C000000*,-703.0,975.916,91,27.1,44.8,0.406,733.9,2.2,1.050*
2018-06-28 03:18:00,-2.700E-01,4C000000*,-703.0,975.108,90,27.1,45.1,0.406,733.9,2.2,1.050*
2018-06-28 03:19:00,-2.181E-01,4C000000*,-703.0,975.108,90,27.1,44.8,0.406,733.9,2.2,1.050*
2018-06-28 03:20:00,-2.703E-01,4C000000*,-702.6,973.895,90,27.1,44.9,0.406,733.9,2.2,1.050*
2018-06-28 03:21:00,-2.630E-01,4C000000*,-702.6,975.916,90,27.1,45.2,0.406,733.9,2.2,1.050*
2018-06-28 03:22:00,-2.798E-01,4C000000*,-703.0,975.512,90,27.2,44.8,0.406,733.9,2.2,1.050*
2018-06-28 03:23:00,-3.167E-01,4C000000*,-703.0,974.703,90,27.1,45.0,0.406,733.9,2.2,1.050*
2018-06-28 03:24:00,-3.510E-01,4C000000*,-702.6,974.299,90,27.1,45.0,0.406,733.9,2.2,1.050*
2018-06-28 03:25:00,-2.724E-01,4C000000*,-703.0,974.299,89,27.1,44.8,0.406,733.9,2.2,1.050*
2018-06-28 03:26:00,-2.862E-01,4C000000*,-703.0,976.320,90,27.1,45.0,0.406,733.9,2.2,1.050*
2018-06-28 03:27:00,-2.836E-01,4C000000*,-703.0,975.512,89,27.1,45.1,0.406,733.9,2.2,1.050*
2018-06-28 03:28:00,-2.797E-01,4C000000*,-702.6,975.916,89,27.2,44.8,0.406,733.9,2.2,1.050*
2018-06-28 03:29:00,-2.633E-01,4C000000*,-702.6,974.703,89,27.2,45.1,0.406,733.9,2.2,1.050*
2018-06-28 03:30:00,-2.877E-01,4C000000*,-702.6,975.512,89,27.1,44.8,0.406,733.9,2.2,1.050*
2018-06-28 03:31:00,-2.611E-01,4C000000*,-703.0,975.108,91,27.2,44.9,0.406,733.9,2.2,1.050*
2018-06-28 03:32:00,-2.723E-01,4C000000*,-702.6,975.108,90,27.1,45.2,0.406,733.9,2.2,1.050*
2018-06-28 03:33:00,-3.738E-01,4C000000*,-703.0,975.108,90,27.2,44.8,0.406,733.9,2.2,1.050*
2018-06-28 03:34:00,-3.530E-01,4C000000*,-703.0,975.108,89,27.1,45.0,0.406,733.9,2.2,1.050*
2018-06-28 03:35:00,-3.352E-01,4C000000*,-702.6,975.512,90,27.1,44.9,0.406,733.9,2.2,1.050*
2018-06-28 03:36:00,-2.659E-01,4C000000*,-703.0,975.512,90,27.1,44.9,0.406,733.9,2.2,1.050*
2018-06-28 03:37:00,-3.539E-01,4C000000*,-703.0,977.533,90,27.2,45.1,0.406,733.6,2.2,1.050*
2018-06-28 03:38:00,-2.827E-01,4C000000*,-703.0,975.916,91,27.2,44.8,0.406,733.9,2.2,1.050*
2018-06-28 03:39:00,-2.795E-01,4C000000*,-703.0,975.108,89,27.2,45.2,0.406,733.9,2.2,1.050*
2018-06-28 03:40:00,-3.010E-01,4C000000*,-702.6,974.703,90,27.2,44.8,0.406,733.9,2.2,1.050*
2018-06-28 03:41:00,-3.700E-01,4C000000*,-702.6,973.895,90,27.2,45.0,0.406,733.9,2.2,1.050*
2018-06-28 03:42:00,-2.403E-01,4C000000*,-703.0,975.108,90,27.2,45.0,0.406,733.9,2.2,1.050*
2018-06-28 03:43:00,-2.557E-01,4C000000*,-702.6,975.512,89,27.1,44.8,0.406,733.9,2.2,1.050*
2018-06-28 03:44:00,-2.023E-01,4C000000*,-702.6,974.703,91,27.2,45.1,0.406,734.2,2.2,1.050*
2018-06-28 03:45:00,-2.992E-01,4C000000*,-703.0,973.895,90,27.1,45.0,0.406,733.9,2.2,1.050*
2018-06-28 03:46:00,-2.929E-01,4C000000*,-702.3,975.108,91,27.2,44.9,0.406,733.9,2.2,1.050*
2018-06-28 03:47:00,-3.590E-01,4C000000*,-703.4,975.108,90,27.2,45.1,0.406,733.9,2.2,1.050*
2018-06-28 03:48:00,-2.770E-01,4C000000*,-702.6,974.703,90,27.1,44.8,0.406,733.9,2.2,1.050*
2018-06-28 03:49:00,-2.610E-01,4C000000*,-702.6,976.320,90,27.2,45.0,0.406,733.9,2.2,1.050*
2018-06-28 03:50:00,-3.069E-01,4C000000*,-702.6,974.703,90,27.2,45.0,0.406,733.9,2.2,1.050*
2018-06-28 03:51:00,-3.283E-01,4C000000*,-702.6,975.916,88,27.2,44.8,0.406,733.6,2.2,1.050*
2018-06-28 03:52:00,-2.408E-01,4C000000*,-703.0,975.512,90,27.2,45.1,0.406,733.9,2.2,1.050*
2018-06-28 03:53:00,-2.608E-01,4C000000*,-702.6,975.108,90,27.2,44.9,0.406,733.9,2.2,1.050*
2018-06-28 03:54:00,-2.228E-01,4C000000*,-702.6,975.108,90,27.2,44.9,0.406,733.9,2.2,1.050*
2018-06-28 03:55:00,-2.732E-01,4C000000*,-703.0,973.895,89,27.2,45.1,0.406,733.9,2.2,1.050*
2018-06-28 03:56:00,-2.759E-01,4C000000*,-702.6,975.512,89,27.2,44.7,0.405,733.6,2.2,1.050*
2018-06-28 03:57:00,-2.376E-01,4C000000*,-703.0,973.895,88,27.2,45.0,0.406,733.9,2.2,1.050*
2018-06-28 03:58:00,-2.405E-01,4C000000*,-702.6,974.703,89,27.2,45.0,0.406,733.9,2.2,1.050*
2018-06-28 03:59:00,-2.433E-01,4C000000*,-702.6,973.895,90,27.1,44.8,0.406,733.9,2.2,1.050*
2018-06-28 04:00:00,-2.103E-01,4C000000*,-703.0,974.703,90,27.2,45.0,0.406,733.9,2.2,1.050*
2018-06-28 04:01:00,-2.477E-01,4C000000*,-703.0,975.512,89,27.2,45.0,0.406,733.9,2.2,1.050*
2018-06-28 04:02:00,-2.451E-01,4C000000*,-703.0,975.512,89,27.2,44.8,0.405,733.9,2.2,1.050*
2018-06-28 04:03:00,-2.632E-01,4C000000*,-703.0,976.320,90,27.2,45.1,0.406,733.9,2.2,1.050*
2018-06-28 04:04:00,-2.560E-01,4C000000*,-702.6,975.108,91,27.2,44.9,0.406,733.9,2.2,1.050*
2018-06-28 04:05:00,-2.584E-01,4C000000*,-702.6,974.299,90,27.2,44.9,0.406,734.2,2.2,1.050*
2018-06-28 04:06:00,-2.952E-01,4C000000*,-702.6,974.703,90,27.2,45.2,0.406,733.9,2.2,1.050*
2018-06-28 04:07:00,-2.479E-01,4C000000*,-703.0,975.108,90,27.2,44.8,0.406,733.9,2.2,1.050*
2018-06-28 04:08:00,-2.774E-01,4C000000*,-702.6,976.320,91,27.2,44.9,0.405,733.9,2.2,1.050*
2018-06-28 04:09:00,-2.418E-01,4C000000*,-702.6,975.108,90,27.2,45.1,0.406,733.9,2.2,1.050*
2018-06-28 04:10:00,-2.497E-01,4C000000*,-703.0,975.108,89,27.2,44.8,0.406,733.9,2.2,1.050*
2018-06-28 04:11:00,-2.116E-01,4C000000*,-702.6,975.512,89,27.3,45.0,0.406,733.9,2.2,1.050*
2018-06-28 04:12:00,-3.225E-01,4C000000*,-703.0,975.108,89,27.3,44.8,0.406,733.9,2.2,1.050*
2018-06-28 04:13:00,-3.441E-01,4C000000*,-703.0,975.108,89,27.2,45.0,0.406,733.9,2.2,1.050*
2018-06-28 04:14:00,-2.518E-01,4C000000*,-703.0,974.703,90,27.3,45.2,0.406,733.9,2.2,1.050*